Retour au catalogue

STARLINK-32268

ActifCommunicationsVLEO
NORAD 60372·PAYLOAD·🇺🇸 United States

Lancé Aug 4, 2024 depuis Vandenberg Space Force Base

Loading…

Prochains Passages (prochaines 24 heures)

TLE

FraisSource: CelesTrak SupGP

Époque: Sep 14, 2026, 21:20 UTC

1 60372C 24138T   26257.88937500 -.00044078  00000+0 -13020-2 0  2577
2 60372  53.1572 149.9498 0001289  88.9334  26.0276 15.34418456    17

Suivez STARLINK-32268 en temps réel avec AllMySat

Download on the App Store